SCP
0 0 0 0 0 0 0 0 0 0 0 0 0 0 0 0 0 0 0 0 0 1 1 2 2 2 2 3 2 2 2 2 2 2 2 2 2 2 2 1 1 1 1 1 1 1 1 1 1
0 0 0 0 0 0 0 0 0 0 0 0 0 0 0 0 0 0 0 0 0 1 1 2 2 3 3 3 3 3 3 3 3 2 2 2 2 2 1 1 1 1 1 1 1 1 1 1 1
0 0 0 0 0 0 0 0 0 0 0 0 0 0 0 0 0 0 0 0 0 1 1 2 3 3 3 3 3 3 3 3 3 2 2 1 1 1 1 1 1 1 1 1 1 1 1 1 1
0 0 0 0 0 0 0 0 0 0 0 0 0 0 0 0 0 0 0 0 0 1 1 1 2 3 3 3 3 3 3 3 2 2 1 1 1 1 1 1 1 1 1 1 1 1 1 1 1
0 0 0 0 0 0 0 0 0 0 0 0 0 0 0 0 0 0 0 0 0 0 1 1 2 2 2 2 2 2 2 2 1 1 1 1 1 1 1 1 1 1 1 1 1 1 1 1 1
0 0 0 0 0 0 0 0 0 0 0 0 0 0 0 0 0 0 0 0 0 0 1 1 1 1 1 1 1 1 1 1 1 1 1 1 1 1 1 1 1 1 1 1 1 1 0 0 0
0 0 0 0 0 0 0 0 0 0 0 0 0 0 0 0 0 0 0 0 0 0 1 1 1 1 1 1 1 1 1 1 1 1 1 1 1 1 1 1 1 1 1 1 1 1 0 0 0
0 0 0 0 0 0 0 0 0 0 0 0 0 0 0 0 0 0 0 0 0 0 0 0 1 1 1 1 1 1 1 1 1 1 1 1 1 1 1 1 1 1 1 1 1 1 1 1 1
0 0 0 0 0 0 0 0 0 0 0 0 0 0 0 0 0 0 0 0 0 0 0 0 0 1 1 1 1 1 1 1 1 1 1 1 1 1 1 1 1 1 1 1 1 1 1 1 1
0 0 0 0 0 0 0 0 0 0 0 0 0 0 0 0 0 0 0 0 0 0 0 1 1 1 1 1 1 1 1 0 0 1 1 1 1 1 1 1 1 1 1 1 1 1 1 1 1
0 0 0 0 0 0 0 0 0 0 1 0 0 0 0 0 0 0 0 0 0 0 0 0 0 1 1 1 1 1 1 0 0 0 0 1 1 1 1 1 1 1 1 1 1 1 1 1 1
0 0 0 0 0 0 0 0 0 0 1 1 0 0 0 0 0 0 0 0 0 0 0 0 0 0 0 1 1 1 1 1 0 0 0 0 1 1 1 1 1 1 1 1 1 1 1 1 1
0 0 0 0 0 0 0 0 0 0 1 1 1 1 1 1 1 1 0 0 0 0 0 0 0 0 0 0 0 1 1 1 1 0 0 0 0 0 1 1 1 1 1 1 1 1 1 1 1
0 0 0 0 0 0 0 0 0 0 1 1 1 1 1 1 1 1 0 0 0 0 0 0 0 0 0 0 0 1 1 1 1 1 0 0 0 0 0 1 1 1 1 1 1 1 1 1 1
0 0 0 0 0 0 0 0 0 0 1 1 1 1 1 1 1 1 1 0 0 0 0 0 0 0 0 0 0 0 1 1 1 1 0 0 0 0 0 0 0 0 0 1 1 1 1 1 1
0 0 0 0 0 0 0 0 0 0 0 1 1 1 1 1 1 1 1 0 0 0 0 0 0 0 0 0 0 0 0 1 1 1 0 0 0 0 0 0 0 0 0 0 0 0 0 0 0
0 0 0 0 0 0 0 0 0 0 0 0 0 0 1 1 1 0 0 0 0 0 0 0 0 0 0 0 0 0 0 1 1 1 0 0 0 0 0 0 0 0 0 0 0 0 0 0 0
0 0 0 0 0 0 0 0 0 0 0 0 0 0 0 0 0 0 0 0 0 0 0 0 0 0 0 0 0 0 0 0 0 0 0 0 0 0 0 0 0 0 0 0 0 0 0 0 0
0 0 0 0 0 0 0 0 0 0 0 0 0 0 0 0 0 0 0 0 0 0 0 0 0 0 0 0 0 0 0 0 0 0 0 0 0 0 0 0 0 0 0 0 0 0 0 0 0
0 0 0 0 0 0 0 0 0 0 0 0 0 0 0 0 0 0 0 0 0 0 0 0 0 0 0 0 0 0 0 0 0 0 0 0 0 0 0 0 0 0 0 0 0 0 0 0 0
0 0 0 0 0 0 0 0 0 0 0 0 0 0 0 0 0 0 0 0 0 0 0 0 0 0 0 0 0 0 0 0 0 0 0 0 0 0 0 0 0 0 0 0 0 0 0 0 0
0 0 0 0 0 0 0 0 0 0 0 0 0 0 0 0 0 0 0 0 0 0 0 0 0 0 0 0 0 0 0 0 0 0 0 0 0 0 0 0 0 0 0 0 0 0 0 0 0
0 0 0 0 0 0 0 0 0 0 0 0 0 0 0 0 0 0 0 0 0 0 0 0 0 0 0 0 0 0 0 0 0 0 0 0 0 0 0 0 0 0 0 0 0 0 0 0 0
0 0 0 0 0 0 0 0 0 0 0 0 0 0 0 0 0 0 0 0 0 0 0 0 0 0 0 0 0 0 0 0 0 0 0 0 0 0 0 0 0 0 0 0 0 0 0 0 0
0 0 0 0 0 0 0 0 0 0 0 0 0 0 0 0 0 0 0 0 0 0 0 0 0 0 0 0 0 0 0 0 0 0 0 0 0 0 0 0 0 0 0 0 0 0 0 0 0
0 0 0 0 0 0 0 0 0 0 0 0 0 0 0 0 0 0 0 0 0 0 0 0 0 0 0 0 0 0 0 0 0 0 0 0 0 0 0 0 0 0 0 0 0 0 0 0 0
0 0 0 0 0 0 0 0 0 0 0 0 0 0 0 0 0 0 0 0 0 0 0 0 0 0 0 0 0 0 0 0 0 0 0 0 0 0 0 0 0 0 0 0 0 0 0 0 0
0 0 0 0 0 0 0 0 0 0 0 0 0 0 0 0 0 0 0 0 0 0 0 0 0 0 0 0 0 0 0 0 0 0 0 0 0 0 0 0 0 0 0 0 0 0 0 0 0
0 0 0 0 0 0 0 0 0 0 0 0 0 0 0 0 0 0 0 0 0 0 0 0 0 0 0 0 0 0 0 0 0 0 0 0 0 0 0 0 0 0 0 0 0 0 0 0 0
0 0 0 0 0 0 0 0 0 0 0 0 0 0 0 0 0 0 0 0 0 0 0 0 0 0 0 0 0 0 0 0 0 0 0 0 0 0 0 0 0 0 0 0 0 0 0 0 0
Wind_Speed
7 4 2 4 6 5 1 3 2 1 0 1 1 2 4 3 2 2 1 2 1 1 1 2 4 6 8 8 9 8 8 9 9 10 10 10 11 11 11 10 10 10 10 10 10 10 10 11 11
2 2 5 5 5 1 4 3 3 2 2 2 2 3 3 1 1 1 1 2 2 2 2 2 5 7 8 9 9 9 9 9 9 10 10 10 10 10 11 10 10 10 10 10 11 10 10 10 10
2 4 5 5 3 5 4 2 3 0 1 1 2 3 2 1 1 1 2 1 2 3 3 3 6 7 8 9 9 9 9 9 9 10 10 10 10 10 10 10 9 9 9 10 10 10 10 10 10
3 5 5 4 3 4 3 1 2 1 2 3 3 2 1 2 1 1 1 2 4 4 3 3 6 8 8 9 9 9 8 9 9 10 9 9 10 10 10 10 9 9 9 9 9 10 9 9 9
4 5 4 0 3 3 2 2 2 1 1 1 2 2 0 2 2 2 3 3 5 4 3 3 6 7 8 8 8 8 8 9 9 9 9 9 9 10 10 9 9 9 9 9 9 9 9 9 9
4 4 3 3 3 3 2 1 1 1 1 1 2 2 0 2 3 3 4 4 5 5 4 4 5 6 7 8 8 8 8 9 9 9 9 9 9 9 9 9 9 9 8 8 8 8 9 9 9
4 4 4 4 2 2 1 0 2 2 1 1 3 3 1 1 2 2 4 5 5 5 5 4 4 4 6 7 7 8 8 8 8 8 8 8 8 9 9 8 8 8 8 8 7 7 8 8 8
4 4 2 3 4 3 0 1 1 2 2 0 2 4 3 1 2 3 5 5 5 5 5 5 5 5 4 4 7 8 8 8 8 8 9 9 9 9 9 8 8 8 8 8 8 8 8 8 8
3 3 4 5 5 3 1 1 1 1 3 1 1 1 1 4 4 5 4 4 4 4 5 4 5 5 5 4 6 7 8 8 8 8 9 8 5 5 5 7 8 8 7 8 8 8 8 8 8
3 3 6 3 3 3 1 1 1 2 1 1 1 2 3 5 5 5 3 3 3 3 3 4 4 4 4 4 4 4 4 5 5 5 5 4 4 4 5 8 9 9 8 8 9 9 8 6 3
3 4 3 2 1 2 2 1 1 3 2 3 4 3 4 4 4 4 3 2 2 2 3 3 3 4 4 3 3 3 3 3 4 5 5 4 3 3 4 3 4 5 6 4 5 5 4 3 2
2 2 2 1 1 1 2 2 1 2 4 2 3 5 5 5 4 4 3 2 2 2 2 2 3 4 4 4 3 3 2 3 3 3 4 3 3 3 3 2 3 3 2 3 3 2 3 3 2
2 1 1 0 1 1 1 1 2 2 2 1 4 4 5 5 4 2 2 2 2 2 2 2 3 3 3 4 3 3 3 3 3 3 3 4 3 2 2 2 2 3 2 3 3 3 3 3 3
1 1 1 1 1 1 2 1 1 3 1 3 3 3 3 3 3 2 2 2 2 2 2 2 2 2 3 3 3 2 2 2 2 2 3 3 2 2 2 2 2 2 2 2 2 2 2 2 2
1 1 2 1 1 1 2 2 3 3 3 3 2 2 2 2 2 3 3 3 3 2 2 3 3 3 3 3 3 2 2 2 2 2 2 3 3 2 2 2 2 2 2 2 2 2 2 2 3
2 1 2 2 1 1 3 6 4 2 4 3 2 2 1 1 1 2 2 2 3 3 3 2 2 3 3 2 2 2 2 2 2 2 2 3 3 3 2 2 2 1 1 2 2 2 2 2 2
1 1 3 3 1 1 3 5 3 2 4 3 3 2 2 1 1 1 1 2 3 3 3 3 3 3 2 2 2 2 2 2 1 2 2 2 2 2 2 1 1 1 2 2 2 2 1 2 2
4 3 3 3 2 0 2 5 4 2 3 4 3 2 2 3 3 2 1 1 2 3 3 3 3 3 2 2 2 2 3 2 2 1 1 2 2 2 2 1 2 2 2 2 2 2 2 1 2
3 3 3 3 2 1 4 6 6 3 3 4 4 4 4 4 2 1 1 2 2 3 3 3 3 3 3 2 1 1 1 1 1 1 1 1 1 1 2 1 1 1 1 1 1 1 2 2 2
2 2 2 2 2 0 3 6 6 4 5 6 6 6 5 3 1 1 1 2 3 3 3 3 3 3 3 2 1 1 1 0 1 1 1 1 1 1 1 1 1 1 1 1 1 1 1 1 2
2 3 3 2 2 2 3 6 4 3 3 3 4 5 4 5 5 3 3 3 3 3 4 3 3 3 2 2 2 2 2 1 1 1 1 1 1 0 0 0 1 0 1 0 0 0 1 0 1
4 3 3 2 0 2 1 5 6 3 3 4 5 4 5 4 4 4 3 3 4 4 3 3 3 3 3 3 3 3 1 1 1 1 1 1 1 1 0 0 0 0 0 0 1 0 0 1 1
3 1 2 1 2 2 1 3 8 2 5 6 5 5 5 4 4 4 4 5 4 4 4 4 3 3 3 3 3 3 2 1 0 0 0 1 1 1 1 1 0 1 1 1 1 1 1 1 2
4 4 4 3 3 3 4 4 8 5 6 4 3 4 4 4 3 3 3 3 2 2 3 3 3 3 3 3 3 3 3 2 1 0 0 1 1 1 1 1 1 1 1 2 2 2 2 2 2
3 4 2 3 2 6 2 4 10 6 4 5 5 4 3 3 3 3 3 3 3 3 3 3 3 3 3 3 3 3 3 3 3 2 2 1 1 1 2 1 1 1 2 2 2 2 2 3 3
3 5 6 5 5 5 2 7 9 4 3 3 3 3 2 2 3 3 3 4 4 4 4 4 4 3 3 3 3 2 2 2 2 2 2 2 2 2 2 2 2 2 2 2 2 2 3 3 3
4 3 3 4 1 3 6 7 9 2 2 2 2 2 2 3 2 2 2 3 3 4 4 4 4 3 3 3 2 2 2 2 2 2 2 2 2 2 2 2 2 2 2 2 2 2 3 3 3
3 6 4 4 3 5 6 6 6 4 4 3 2 3 3 2 2 2 2 2 3 3 3 3 3 3 3 3 2 2 2 2 2 2 2 2 2 2 2 3 3 3 2 2 2 2 3 3 3
3 3 3 3 3 4 4 8 5 6 4 4 5 4 4 3 3 2 2 2 1 1 2 2 2 2 2 3 2 2 2 2 2 2 2 2 2 3 3 3 3 3 3 3 2 3 3 3 3
3 5 6 5 4 4 3 9 4 3 3 3 4 4 3 3 2 2 2 1 1 2 2 2 2 3 3 3 2 2 2 2 2 2 3 2 2 3 3 3 3 3 3 3 3 4 3 4 4
Wind_Direction
352 4 51 53 55 53 239 248 229 254 159 38 65 96 123 129 157 174 340 26 47 109 119 132 120 119 117 110 105 102 99 94 93 93 90 86 85 83 79 79 79 79 77 76 77 79 80 80 79
350 16 51 58 88 126 261 244 222 212 158 107 57 71 79 67 26 30 353 353 62 97 92 107 113 112 113 110 105 102 99 96 91 91 89 86 85 83 79 78 77 76 74 74 76 76 79 79 79
18 49 76 78 125 183 222 232 213 76 68 96 77 55 87 82 8 329 317 355 76 80 72 91 107 108 109 107 105 102 99 97 94 93 89 86 85 85 81 78 79 77 75 75 77 76 75 74 75
61 48 57 84 207 222 221 244 166 122 52 59 106 80 58 9 337 319 355 64 91 77 69 85 106 108 106 106 105 102 99 95 92 92 89 87 85 86 83 80 78 78 75 76 75 75 71 71 71
57 76 74 79 238 252 251 253 171 146 100 50 105 113 22 4 22 53 66 81 93 77 63 76 103 107 106 105 104 102 100 96 93 91 88 88 86 83 82 81 78 75 75 73 71 71 69 67 67
63 75 114 215 235 263 276 267 136 118 126 106 119 123 209 25 44 50 67 71 81 81 66 66 93 100 104 104 103 100 98 96 93 90 87 86 85 84 83 82 79 75 74 72 70 68 67 64 62
110 113 170 195 218 253 243 100 134 141 147 200 157 132 211 28 59 72 73 75 72 70 69 59 64 77 89 93 95 96 93 90 89 87 83 80 79 78 77 75 75 74 72 69 67 64 64 62 59
124 117 163 198 202 231 229 74 81 135 173 72 128 151 203 200 112 90 77 74 70 61 59 57 54 57 64 77 84 86 84 82 80 78 74 70 67 67 65 59 61 66 67 66 65 65 63 59 58
95 104 201 206 195 209 147 106 24 58 103 61 47 158 173 129 118 95 78 69 68 60 48 50 58 57 58 65 70 71 74 72 70 68 68 64 54 51 51 49 52 53 59 61 59 59 59 55 52
102 176 216 206 185 176 159 149 158 96 70 63 35 56 96 121 125 117 111 114 102 81 55 47 60 61 62 65 61 55 59 59 58 59 62 59 54 50 53 45 44 44 47 50 50 50 51 49 38
146 193 203 226 196 157 154 165 148 143 212 213 198 171 141 138 137 135 135 131 131 112 81 57 65 68 69 67 65 58 58 59 56 56 60 61 57 48 46 42 32 32 38 37 36 39 34 37 36
153 247 209 237 191 153 172 155 147 193 223 210 174 156 153 155 163 166 163 146 116 99 88 73 74 75 73 73 68 64 62 62 59 53 58 64 63 53 45 45 34 33 30 31 31 32 26 26 24
190 240 257 209 115 125 122 184 188 239 254 117 123 139 161 167 170 169 151 130 112 111 96 80 75 82 84 81 74 70 65 66 64 56 52 61 68 60 50 44 42 37 35 35 27 21 18 17 14
193 208 283 297 199 185 156 255 166 248 176 120 130 148 160 161 161 150 143 145 146 143 126 106 97 87 86 85 84 80 73 71 67 60 53 60 67 70 62 48 43 36 34 35 35 24 16 3 5
92 53 330 282 194 200 129 297 234 220 139 136 141 146 147 159 157 170 176 174 173 159 135 126 124 100 93 89 86 81 75 70 65 57 54 58 63 71 70 65 49 30 29 38 41 29 26 17 9
68 82 274 289 188 201 160 250 255 195 148 160 176 175 176 180 185 193 179 167 163 151 139 135 128 112 97 90 91 88 77 74 62 57 60 59 61 67 69 66 51 28 40 45 47 36 26 17 3
48 221 235 294 305 174 186 244 256 193 169 189 203 207 209 232 252 228 185 162 161 155 146 138 126 117 112 98 88 88 85 74 60 56 60 54 60 68 72 62 42 38 48 43 37 39 33 8 355
206 211 228 247 295 153 221 252 271 253 194 208 213 218 222 230 242 228 185 161 148 140 136 131 115 111 111 99 84 75 69 61 56 55 52 58 56 63 76 69 46 47 53 40 37 32 28 11 345
162 178 229 254 293 223 238 260 267 254 221 225 226 222 226 235 246 211 160 140 126 118 127 139 134 132 122 112 110 99 93 67 50 38 36 50 58 63 73 61 57 54 61 45 43 50 35 20 5
154 192 245 295 359 296 279 276 266 238 225 218 216 218 218 221 236 199 147 144 152 154 158 154 153 149 144 140 131 117 133 133 73 27 28 28 42 56 68 77 71 59 60 36 37 54 56 19 24
222 206 214 243 344 12 334 300 271 258 238 242 223 214 211 206 209 202 178 179 173 174 175 169 162 148 142 120 95 73 57 47 46 16 357 345 354 24 66 105 102 87 107 132 345 79 97 176 323
235 226 201 204 105 292 8 286 275 252 269 249 241 224 222 219 208 200 190 189 192 193 177 170 166 155 145 134 138 142 152 183 219 254 288 325 336 338 337 299 150 170 164 192 232 192 193 180 240
186 109 141 163 160 298 273 242 279 274 257 251 240 227 222 219 209 204 202 202 199 185 174 172 164 162 158 156 162 162 174 194 175 324 341 337 320 312 319 300 248 234 228 229 229 231 222 207 216
132 75 58 51 71 263 230 205 272 237 231 241 232 226 222 220 219 217 213 189 183 170 163 163 166 175 169 166 172 173 180 180 164 228 277 318 324 317 320 305 273 256 248 240 236 229 224 222 227
107 103 41 355 339 252 221 217 251 250 241 225 220 230 231 214 205 204 191 182 187 180 176 171 174 183 180 178 186 190 194 192 197 206 220 259 289 287 275 282 265 261 253 248 238 231 235 227 225
172 151 165 199 228 273 258 237 254 261 269 254 233 231 229 222 207 206 202 195 197 196 187 180 184 192 190 189 196 191 189 194 208 213 214 228 242 256 268 265 259 256 253 255 239 239 240 241 235
148 180 163 134 137 273 265 280 296 273 277 253 238 229 236 236 228 223 218 207 201 201 201 195 193 195 195 196 195 197 193 198 214 226 222 232 244 261 263 276 268 262 255 245 238 241 243 242 242
143 143 119 144 181 251 278 267 258 265 249 245 234 237 245 245 247 251 237 223 213 209 207 199 193 197 196 191 195 208 211 214 218 220 235 242 244 247 249 264 266 263 261 253 241 244 245 246 254
139 143 147 152 173 186 261 267 232 230 227 223 236 243 249 254 251 255 257 239 214 202 195 198 194 190 196 200 202 206 216 219 218 227 238 244 246 243 243 250 260 259 257 251 243 248 250 247 259
181 177 159 173 220 193 213 268 278 247 260 238 251 261 265 260 259 261 257 237 209 206 209 209 206 204 208 203 203 207 211 212 222 236 241 240 248 252 247 246 256 260 259 252 246 254 254 247 254